Location: Lane
(33.5226°N, 79.8788°W)
Time: 22:51:37
(UTC+00:00)

SR - Pass Details

Date: 03 October 2022
Orbit: 577 x 875 km, 66.7° (Epoch: 27 November)

Event Time Altitude Azimuth Distance (km) Brightness Sun altitude
Rises 11:59:03 0° 325° (NW) 3,248 ? 8.2°
Reaches altitude 10° 12:01:41 10° 318° (NW) 2,267 ? 8.7°
Maximum altitude 12:06:25 38° 251° (WSW) 1,064 ? 9.7°
Drops below altitude 10° 12:10:46 10° 183° (S) 2,073 ? 10.6°
Sets 12:13:05 0° 175° (S) 2,936 ? 11.1°
